Flag for Germany Weather past 2 weeks in Memmingen, Bavaria, Germany

Now
36 °F

Overcast.


Feels Like: 32 °F
Forecast: 32 / 43 °F
Wind: 5 mph from West

Location: Kempten

Current Time: Dec 21, 2014 at 4:28:26 AM

Latest Report: Dec 21, 2014 at 3:00 AM


Visibility: 25 mi

Pressure: 30.52 "Hg

Humidity: 87%

Dew point: 32 °F

Location of MemmingenLocation

Historic Weather in Memmingen — Graph

°F

Memmingen temperature yesterday

Maximum temperature yesterday: 45 °F (at 1:00 AM)
Minimum temperature yesterday: 37 °F (at 7:00 PM)
Average temperature yesterday: 41 °F

Past Weeks' High & Low Weather Summary

 TemperatureHumidityPressure
High53 °F (Dec 19, 2:00 PM)98% (Dec 6, 7:00 AM)30.52 "Hg (Dec 6, 7:00 AM)
Low24 °F (Dec 10, 7:00 AM)47% (Dec 13, 2:00 PM)29.84 "Hg (Dec 12, 9:00 PM)
Average39 °F82%30.13 "Hg
* Reported Dec 6 3:00 AM — Dec 21 3:00 AM, Memmingen, Weather by CustomWeather, © 2014

Note: Actual official high and low records may vary slightly from our data, if they occured in-between our weather recording intervals... More about our weather records

Advertising

Memmingen weather history for previous 24 hours

 ConditionsComfort  
Time TempWeatherWind HumidityBarometerVisibility
3:00 AM
Dec 21
36 °FOvercast.5 mph87%30.52 "Hg25 mi
2:00 AM34 °FLight snow. Low clouds.3 mph94%30.51 "Hg3 mi
1:00 AM37 °FLight snow. Overcast.6 mph75%30.48 "Hg3 mi
12:00 AM36 °FLight snow. Overcast.6 mph78%30.47 "Hg7 mi
11:00 PM
Dec 20
38 °FOvercast.7 mph70%30.44 "Hg37 mi
9:00 PM37 °FOvercast.7 mph71%30.40 "Hg31 mi
8:00 PM37 °FOvercast.7 mph73%30.40 "Hg31 mi
7:00 PM37 °FOvercast.6 mph73%30.37 "Hg28 mi
6:00 PM38 °FOvercast.6 mph73%30.33 "Hg34 mi
5:00 PM38 °FOvercast.5 mph79%30.30 "Hg22 mi
4:00 PM40 °FOvercast.5 mph81%30.28 "Hg28 mi
3:00 PM40 °FOvercast.3 mph82%30.28 "Hg34 mi
2:00 PM40 °FOvercast.5 mph84%30.29 "Hg25 mi
1:00 PM40 °FOvercast.6 mph84%30.31 "Hg28 mi
12:00 PM41 °FOvercast.6 mph85%30.32 "Hg34 mi
11:00 AM42 °FOvercast.5 mph83%30.33 "Hg37 mi
9:00 AM44 °FOvercast.5 mph80%30.32 "Hg43 mi
8:00 AM44 °FOvercast.5 mph82%30.31 "Hg43 mi
7:00 AM44 °FDrizzle. Overcast.3 mph82%30.30 "Hg40 mi
6:00 AM44 °FLight freezing rain. Overcast.2 mph88%30.28 "Hg15 mi
5:00 AM45 °FOvercast.2 mph87%30.27 "Hg43 mi
Weather by CustomWeather, © 2014

See weather overviewHow to use our weather pages